[[{"header":{"parameterUnit":"m.s-1","parameterCategory":2,"la1":30.2991,"la2":30.254,"lo1":-89.0895,"lo2":-89.0444,"dy":0.0017,"dx":0.0017,"nx":28,"ny":28,"refTime":"2024-03-21T21:00:00:Z","depth":"0","parameterNumber":2,"parameterNumberName":"U-component_of_CURRENTS"},"data":[0,0,0,0,0,0,0,0,0,0,0,0,0,0,0,0,0,0,0,0,0,0,0,0,0,0,0,0,0,0,0,0,0,0,0,0,0,0,0,0,0,0,0,0,0,0,0,0,0,0,0,0,0,0,0,0,0,0,-0.2691,-0.2691,0,-0.2625,-0.2623,-0.2622,-0.2583,-0.2583,-0.2584,-0.2584,-0.2379,-0.2374,-0.2368,0,0,0,0,0,0,0,0,0,0,0,0,0,-0.2621,-0.2623,-0.2691,-0.2691,-0.2691,-0.2625,-0.2623,-0.2622,-0.2583,-0.2583,-0.2584,-0.2584,-0.2381,-0.2374,-0.2367,0,0,0,0,0,0,0,0,0,0,0,0,0,-0.2606,-0.2623,-0.2691,-0.2669,-0.2667,-0.2625,-0.2623,-0.2621,-0.2582,-0.2583,-0.2584,-0.2585,-0.2384,-0.2375,-0.2366,-0.2296,0,0,-0.2339,-0.2335,0,0,0,0,0,0,0,0,-0.2607,-0.2608,-0.2672,-0.2671,-0.2668,-0.2619,-0.2524,-0.2508,-0.2582,-0.2607,-0.2584,-0.2585,-0.2451,-0.2437,-0.2414,-0.2287,-0.2278,-0.2338,-0.2333,-0.2329,-0.2327,0,0,0,0,0,0,0,-0.2608,-0.2609,-0.2657,-0.2672,-0.267,-0.2607,-0.2606,-0.252,-0.2517,-0.2605,-0.2603,-0.2608,-0.2448,-0.2423,-0.2409,-0.2275,-0.2339,-0.2331,-0.2325,-0.2322,-0.2151,-0.2151,0,0,0,0,0,0,-0.264,-0.2612,-0.266,-0.2656,-0.2647,-0.2609,-0.2607,-0.2628,-0.2521,-0.2509,-0.2607,-0.2606,-0.2438,-0.2419,-0.2401,-0.2356,-0.2329,-0.2321,-0.2316,-0.215,-0.2151,-0.2152,0,0,0,0,0,0,-0.2639,-0.2645,-0.2663,-0.2637,-0.2636,-0.2611,-0.2633,-0.2627,-0.2605,-0.2526,-0.2509,-0.2594,-0.2437,-0.2414,-0.2347,-0.2346,-0.2317,-0.2309,-0.2149,-0.215,-0.2151,-0.2238,0,0,0,0,0,0,-0.2637,-0.2645,-0.264,-0.264,-0.2639,-0.2657,-0.2633,-0.2625,-0.261,-0.2608,-0.2508,-0.249,-0.2436,-0.2361,-0.2338,-0.2334,-0.2302,-0.2148,-0.215,-0.2151,-0.2234,-0.2242,-0.2248,0,0,0,0,0,-0.2635,-0.262,-0.264,-0.2645,-0.2643,-0.2659,-0.2651,-0.2629,-0.2609,-0.2608,-0.2546,-0.2494,-0.2354,-0.2353,-0.2327,-0.232,-0.2147,-0.2149,-0.2151,-0.223,-0.224,-0.2248,0,0,0,0,0,0,-0.2524,-0.2616,-0.2638,-0.2635,-0.2664,-0.2656,-0.2631,-0.2629,-0.2578,-0.2564,-0.2486,-0.2464,-0.241,-0.2354,-0.2355,-0.228,-0.2247,-0.2244,-0.2317,-0.2325,-0.2332,-0.2225,-0.2295,0,0,0,0,0,-0.2519,-0.2558,-0.2621,-0.2606,-0.2635,-0.2636,-0.2626,-0.2634,-0.2605,-0.2583,-0.252,-0.2451,-0.2394,-0.2354,-0.2293,-0.2233,-0.2138,-0.2219,-0.2226,-0.2232,-0.213,-0.2055,-0.2044,-0.2158,-0.2158,-0.2157,0,0,-0.2459,-0.2515,-0.2526,-0.259,-0.2601,-0.2593,-0.263,-0.2636,-0.2597,-0.2563,-0.2472,-0.2465,-0.2386,-0.2338,-0.2309,-0.229,-0.2162,-0.2235,-0.2241,-0.2131,-0.2055,-0.2043,-0.2033,-0.2159,-0.2159,-0.2158,0,0,-0.2355,-0.2433,-0.2433,-0.2468,-0.2526,-0.2551,-0.2563,-0.2587,-0.2578,-0.2534,-0.2503,-0.2491,-0.2391,-0.2348,-0.2307,-0.2306,-0.2207,-0.2316,-0.225,-0.2183,-0.2171,-0.2159,-0.2068,-0.2047,-0.2317,-0.2317,-0.2317,0,-0.2288,-0.229,-0.242,-0.2415,-0.2418,-0.2532,-0.2498,-0.2505,-0.2491,-0.2472,-0.2513,-0.2398,-0.2377,-0.2279,-0.23,-0.2314,-0.2243,-0.2232,-0.2188,-0.2174,-0.2161,-0.2069,-0.2045,-0.2321,-0.2321,-0.232,-0.232,0,-0.2175,-0.2177,-0.2176,-0.2231,-0.2258,-0.226,-0.2331,-0.2345,-0.2379,-0.2383,-0.2344,-0.2345,-0.2266,-0.231,-0.2291,-0.2199,-0.2173,-0.2216,-0.2161,-0.2154,-0.206,-0.2033,-0.2328,-0.2326,-0.2325,-0.2324,0,0,-0.2037,-0.2097,-0.2089,-0.2084,-0.2173,-0.2184,-0.2168,-0.219,-0.2154,-0.2201,-0.212,-0.2123,-0.2162,-0.2113,-0.2141,-0.2096,-0.201,-0.2104,-0.2099,-0.1998,-0.1821,-0.1665,-0.162,-0.2053,-0.2048,-0.2044,-0.1809,0,-0.191,-0.1861,-0.1928,-0.1861,-0.1853,-0.1966,-0.1937,-0.1975,-0.2024,-0.1988,-0.2038,-0.1993,-0.2077,-0.2074,-0.2038,-0.2024,-0.1932,-0.2064,-0.1847,-0.1837,-0.1689,-0.1581,-0.1512,-0.1281,-0.1782,-0.1777,-0.1774,0,-0.1781,-0.1769,-0.169,-0.171,-0.1719,-0.169,-0.1713,-0.1707,-0.1729,-0.1764,-0.1761,-0.1805,-0.1761,-0.1845,-0.174,-0.1823,-0.1767,-0.1759,-0.1752,-0.152,-0.1626,-0.136,-0.1212,-0.1302,-0.1731,-0.1735,-0.1738,0,-0.1638,-0.1611,-0.1546,-0.1545,-0.1578,-0.1552,-0.1578,-0.162,-0.1629,-0.1613,-0.1616,-0.1591,-0.157,-0.153,-0.1545,-0.163,-0.1392,-0.1534,-0.1307,-0.1299,-0.1134,-0.1116,-0.101,-0.1341,-0.1342,-0.1342,-0.1343,0,-0.1509,-0.1454,-0.1466,-0.1424,-0.1354,-0.1421,-0.137,-0.1405,-0.1426,-0.1384,-0.148,-0.1399,-0.1484,-0.1408,-0.1423,-0.1246,-0.1293,-0.1186,-0.1187,-0.1169,-0.1158,-0.1143,-0.122,-0.1334,-0.1336,-0.1337,-0.1339,0,-0.1375,-0.1389,-0.1307,-0.1289,-0.1289,-0.1238,-0.1284,-0.126,-0.1297,-0.1232,-0.1227,-0.1229,-0.1097,-0.1139,-0.1039,-0.1054,-0.0922,-0.0853,-0.0805,-0.08,-0.0696,-0.078,-0.0524,-0.0501,-0.0566,-0.056,-0.0555,0,-0.1301,-0.1236,-0.1193,-0.1166,-0.1154,-0.1118,-0.1117,-0.118,-0.1171,-0.1093,-0.1037,-0.0899,-0.0736,-0.0549,-0.0541,-0.045,-0.0587,-0.0343,-0.0472,-0.0561,-0.0661,-0.0772,-0.0785,-0.033,-0.0323,-0.0318,-0.0314,0,-0.1132,-0.112,-0.1072,-0.1019,-0.0991,-0.0966,-0.0958,-0.0929,-0.0955,-0.0883,-0.0678,-0.0518,-0.0298,-0.0125,-0.003,-0.0025,-0.0372,-0.0224,-0.034,-0.0404,-0.0488,-0.0514,-0.0631,-0.0267,-0.0272,-0.0275,-0.0278,-0.028,-0.1006,-0.095,-0.0907,-0.0859,-0.0838,-0.078,-0.0716,-0.0703,-0.0609,-0.0457,-0.035,-0.0093,0.0093,0.0274,0.024,0.0172,0.0091,0.0096,0.0021,-0.0071,-0.0071,-0.0028,0.0336,0.0335,0.0334,0.0333,0.0332,0,-0.0848,-0.0821,-0.0763,-0.0697,-0.0628,-0.0666,-0.0597,-0.0516,-0.0339,-0.0202,0.0003,0.0293,0.0467,0.0467,0.045,0.0363,0.0211,0.0279,0.0063,0.005,0.0085,0.0068,0.042,0.042,0.042,0.042,0.042,0.042,-0.0768,-0.0679,-0.0666,-0.0508,-0.0464,-0.0335,-0.0262,-0.0157,-0.0064,0.0203,0.0357,0.0472,0.0531,0.0497,0.0355,0.0302,0.0124,0.018,0.0087,-0.0019,-0.0048,-0.0077,-0.0113,0.0195,0.0195,0.0043,0.0042,0.0041]},{"header":{"parameterUnit":"m.s-1","parameterCategory":2,"la1":30.2991,"la2":30.254,"lo1":-89.0895,"lo2":-89.0444,"dy":0.0017,"dx":0.0017,"nx":28,"ny":28,"refTime":"2024-03-21T21:00:00:Z","depth":"0","parameterNumber":3,"parameterNumberName":"V-component_of_CURRENTS"},"data":[0,0,0,0,0,0,0,0,0,0,0,0,0,0,0,0,0,0,0,0,0,0,0,0,0,0,0,0,0,0,0,0,0,0,0,0,0,0,0,0,0,0,0,0,0,0,0,0,0,0,0,0,0,0,0,0,0,0,0.0317,0.0317,0,0.0339,0.0339,0.034,0.0347,0.0347,0.0347,0.0347,0.0423,0.0426,0.0428,0,0,0,0,0,0,0,0,0,0,0,0,0,0.0285,0.0285,0.0317,0.0317,0.0318,0.0339,0.0339,0.034,0.0347,0.0347,0.0347,0.0347,0.0423,0.0425,0.0428,0,0,0,0,0,0,0,0,0,0,0,0,0,0.0303,0.0285,0.0317,0.0323,0.0323,0.0339,0.0339,0.034,0.0348,0.0347,0.0347,0.0347,0.0422,0.0425,0.0428,0.0456,0,0,0.0439,0.044,0,0,0,0,0,0,0,0,0.0302,0.0305,0.0322,0.0322,0.0323,0.0339,0.0356,0.0381,0.0348,0.034,0.0347,0.0346,0.0399,0.0405,0.0411,0.0459,0.0463,0.0439,0.0441,0.0442,0.0443,0,0,0,0,0,0,0,0.0301,0.0304,0.0327,0.0322,0.0323,0.0325,0.0327,0.036,0.0374,0.0341,0.0341,0.0341,0.04,0.0408,0.0413,0.0464,0.0439,0.0442,0.0444,0.0445,0.0574,0.0576,0,0,0,0,0,0,0.0295,0.0303,0.0327,0.0328,0.031,0.0325,0.0328,0.0335,0.0372,0.0376,0.0341,0.0341,0.0402,0.0409,0.0416,0.0448,0.0442,0.0446,0.0448,0.0573,0.0575,0.0576,0,0,0,0,0,0,0.0295,0.0298,0.0326,0.0314,0.0317,0.0326,0.0334,0.0336,0.0339,0.0371,0.0377,0.0342,0.0402,0.0411,0.0446,0.0452,0.0447,0.045,0.0571,0.0573,0.0575,0.0516,0,0,0,0,0,0,0.0294,0.0298,0.0288,0.0314,0.0318,0.0329,0.0334,0.0337,0.0339,0.034,0.0375,0.0381,0.0402,0.044,0.0449,0.0456,0.0453,0.057,0.0572,0.0575,0.0516,0.0515,0.0515,0,0,0,0,0,0.0293,0.0265,0.0288,0.029,0.031,0.0329,0.0332,0.0338,0.034,0.034,0.0368,0.038,0.0464,0.0444,0.0454,0.0462,0.0568,0.0571,0.0575,0.0516,0.0516,0.0515,0,0,0,0,0,0,0.0208,0.0265,0.029,0.0272,0.0304,0.033,0.0316,0.0336,0.0357,0.0357,0.039,0.0399,0.0438,0.0465,0.0442,0.0513,0.0522,0.0527,0.0474,0.0474,0.0474,0.0407,0.0456,0,0,0,0,0,0.0198,0.0209,0.0262,0.0242,0.0264,0.0297,0.0301,0.0319,0.0345,0.0352,0.0382,0.0422,0.0461,0.0476,0.0518,0.0547,0.0535,0.0566,0.0565,0.0564,0.052,0.0484,0.0474,0.0587,0.0587,0.0586,0,0,0.0151,0.0185,0.0184,0.0228,0.0252,0.0275,0.0298,0.0308,0.0321,0.036,0.0379,0.0423,0.0472,0.0507,0.0527,0.0525,0.0542,0.0568,0.0566,0.0522,0.0486,0.0474,0.0463,0.0589,0.0588,0.0588,0,0,0.0085,0.0108,0.0119,0.0153,0.0204,0.0235,0.0242,0.0291,0.0307,0.0348,0.0378,0.0409,0.0482,0.0498,0.0521,0.0545,0.0546,0.0583,0.0514,0.048,0.0469,0.0458,0.048,0.0471,0.0575,0.0575,0.0575,0,0.0035,0.0052,0.0114,0.0141,0.0148,0.022,0.0225,0.0262,0.0311,0.0304,0.035,0.0409,0.0469,0.0465,0.0489,0.0536,0.053,0.0505,0.0472,0.0461,0.0451,0.0475,0.0467,0.0572,0.0573,0.0573,0.0573,0,0.0003,0.0012,0.0011,0.0083,0.0101,0.0109,0.0182,0.02,0.0242,0.0267,0.0285,0.0358,0.0378,0.0426,0.0471,0.0437,0.0465,0.0476,0.0454,0.0434,0.0465,0.0456,0.0569,0.057,0.057,0.0571,0,0,-0.0083,-0.0018,-0.0017,-0.0005,0.007,0.0079,0.0101,0.0123,0.011,0.0177,0.0141,0.0235,0.0257,0.0284,0.0341,0.0322,0.0301,0.0364,0.0364,0.0353,0.0252,0.0377,0.038,0.0289,0.0286,0.0284,0.0319,0,-0.0121,-0.0103,-0.0061,-0.0067,-0.0052,-0.0001,0.0006,0.0032,0.0069,0.0063,0.0109,0.013,0.0212,0.023,0.0218,0.0276,0.0267,0.0292,0.03,0.0301,0.0384,0.037,0.0451,0.0496,0.0311,0.0309,0.0308,0,-0.0145,-0.0134,-0.0142,-0.0138,-0.013,-0.0125,-0.0132,-0.0111,-0.0099,-0.0075,-0.0077,-0.0027,-0.0018,0.0059,0.0085,0.0093,0.016,0.0202,0.0204,0.0316,0.0407,0.048,0.0488,0.0479,0.0296,0.0297,0.0298,0,-0.0208,-0.0196,-0.0215,-0.0206,-0.0177,-0.0198,-0.0186,-0.0171,-0.0158,-0.0169,-0.0146,-0.0169,-0.0093,-0.0109,0.0069,0.0041,0.0116,0.0089,0.0256,0.0269,0.0335,0.0358,0.0297,0.0075,0.0075,0.0075,0.0074,0,-0.0248,-0.0265,-0.025,-0.0254,-0.0299,-0.0258,-0.0296,-0.0284,-0.0269,-0.0213,-0.0213,-0.0119,-0.0128,-0.0039,0.0009,0.0156,0.0082,0.0225,0.0266,0.0331,0.0352,0.0348,0.0346,0.0076,0.0076,0.0075,0.0075,0,-0.029,-0.0277,-0.0304,-0.0311,-0.0318,-0.0344,-0.0333,-0.0345,-0.0306,-0.023,-0.022,-0.0094,0.0047,0.0076,0.0141,0.0173,0.0277,0.0313,0.0434,0.0486,0.0545,0.054,0.0545,0.061,0.0389,0.0392,0.0394,0,-0.03,-0.0314,-0.0347,-0.0367,-0.0369,-0.0395,-0.04,-0.0376,-0.0331,-0.013,-0.0063,0.0091,0.0307,0.0429,0.0445,0.0479,0.0493,0.0579,0.0514,0.0545,0.0566,0.0557,0.0609,0.0604,0.0608,0.0611,0.0614,0,-0.0326,-0.0342,-0.0364,-0.0403,-0.0425,-0.0436,-0.0402,-0.0354,-0.0227,-0.0106,0.0211,0.0396,0.0597,0.0738,0.0768,0.0773,0.0599,0.0648,0.0614,0.0667,0.0712,0.0799,0.0623,0.0643,0.064,0.0638,0.0636,0.0635,-0.0346,-0.0375,-0.0399,-0.0434,-0.0453,-0.0405,-0.0344,-0.0227,-0.0075,0.0246,0.0456,0.0805,0.0967,0.1028,0.0983,0.0904,0.0871,0.0876,0.0854,0.083,0.0916,0.0843,0.0952,0.0951,0.095,0.0949,0.0948,0,-0.0359,-0.0381,-0.0418,-0.0429,-0.0412,-0.0424,-0.0291,-0.0147,0.0141,0.042,0.0768,0.1184,0.1276,0.1251,0.1163,0.1104,0.1047,0.1081,0.103,0.1063,0.0934,0.0967,0.1164,0.1164,0.1164,0.1164,0.1164,0.1164,-0.0364,-0.0395,-0.041,-0.0374,-0.0358,-0.0241,-0.0122,0.0125,0.0361,0.0835,0.1153,0.1412,0.1512,0.1335,0.12,0.1181,0.1161,0.1192,0.1172,0.1013,0.0989,0.0966,0.0992,0.1191,0.1191,0.1329,0.133,0.1331]}],[{"header":{"parameterUnit":"m.s-1","parameterCategory":2,"la1":30.2991,"la2":30.254,"lo1":-89.0895,"lo2":-89.0444,"dy":0.0017,"dx":0.0017,"nx":28,"ny":28,"refTime":"2024-03-21T21:00:00:Z","depth":"2","parameterNumber":2,"parameterNumberName":"U-component_of_CURRENTS"},"data":[0,0,0,0,0,0,0,0,0,0,0,0,0,0,0,0,0,0,0,0,0,0,0,0,0,0,0,0,0,0,0,0,0,0,0,0,0,0,0,0,0,0,0,0,0,0,0,0,0,0,0,0,0,0,0,0,0,0,-0.1499,-0.1504,0,-0.1803,-0.1804,-0.1805,-0.182,-0.1819,-0.1818,-0.1818,-0.1723,-0.1721,-0.172,0,0,0,0,0,0,0,0,0,0,0,0,0,-0.1405,-0.1401,-0.1498,-0.1505,-0.1512,-0.1803,-0.1804,-0.1805,-0.182,-0.1819,-0.1818,-0.1817,-0.1724,-0.1722,-0.172,0,0,0,0,0,0,0,0,0,0,0,0,0,-0.1521,-0.14,-0.1497,-0.1576,-0.1588,-0.1802,-0.1804,-0.1806,-0.182,-0.1819,-0.1818,-0.1817,-0.1724,-0.1722,-0.1719,-0.1727,0,0,-0.1711,-0.171,0,0,0,0,0,0,0,0,-0.1514,-0.152,-0.1558,-0.1572,-0.1586,-0.1799,-0.1739,-0.177,-0.1821,-0.17,-0.1818,-0.1816,-0.1732,-0.1729,-0.1751,-0.1722,-0.1718,-0.1711,-0.1709,-0.1708,-0.1707,0,0,0,0,0,0,0,-0.1505,-0.1511,-0.1588,-0.1566,-0.1583,-0.1763,-0.1769,-0.1746,-0.1688,-0.1711,-0.172,-0.1802,-0.1732,-0.1754,-0.1749,-0.1717,-0.1711,-0.1709,-0.1707,-0.1706,-0.1635,-0.1635,0,0,0,0,0,0,-0.1504,-0.1499,-0.1579,-0.16,-0.1581,-0.1765,-0.1772,-0.1707,-0.1698,-0.1707,-0.1803,-0.1803,-0.1759,-0.1752,-0.1745,-0.1682,-0.1708,-0.1706,-0.1704,-0.1635,-0.1635,-0.1635,0,0,0,0,0,0,-0.1497,-0.1501,-0.1567,-0.1592,-0.1616,-0.1767,-0.1695,-0.1714,-0.1751,-0.1778,-0.1773,-0.1827,-0.1758,-0.1749,-0.1724,-0.168,-0.1704,-0.1702,-0.1636,-0.1635,-0.1635,-0.1599,0,0,0,0,0,0,-0.149,-0.1493,-0.1517,-0.1585,-0.1615,-0.1648,-0.1701,-0.1722,-0.1819,-0.1819,-0.1796,-0.1786,-0.1756,-0.1728,-0.1721,-0.1677,-0.17,-0.1636,-0.1635,-0.1635,-0.1601,-0.1598,-0.1595,0,0,0,0,0,-0.1483,-0.1533,-0.151,-0.153,-0.161,-0.165,-0.1675,-0.1769,-0.1821,-0.18,-0.1816,-0.1787,-0.1719,-0.1727,-0.1718,-0.1672,-0.1636,-0.1636,-0.1635,-0.1602,-0.1598,-0.1595,0,0,0,0,0,0,-0.1524,-0.1544,-0.152,-0.1571,-0.1581,-0.1663,-0.1767,-0.1782,-0.1791,-0.1833,-0.1794,-0.1783,-0.1736,-0.1727,-0.1737,-0.1654,-0.1669,-0.1667,-0.1647,-0.1643,-0.164,-0.1613,-0.1698,0,0,0,0,0,-0.1536,-0.1541,-0.1558,-0.1588,-0.1619,-0.1678,-0.1748,-0.1772,-0.1798,-0.1806,-0.1775,-0.1766,-0.173,-0.1708,-0.1675,-0.1644,-0.1629,-0.1608,-0.1605,-0.1602,-0.1577,-0.1556,-0.1549,-0.1633,-0.1633,-0.1633,0,0,-0.1568,-0.1589,-0.1596,-0.16,-0.1649,-0.1644,-0.1705,-0.18,-0.1768,-0.1792,-0.1758,-0.1754,-0.1723,-0.1673,-0.1651,-0.1657,-0.157,-0.1602,-0.1599,-0.1575,-0.1555,-0.1546,-0.1539,-0.1632,-0.1632,-0.1632,0,0,-0.1597,-0.163,-0.162,-0.1627,-0.1706,-0.172,-0.173,-0.177,-0.1768,-0.1738,-0.1751,-0.1726,-0.1669,-0.163,-0.1607,-0.1576,-0.1557,-0.1572,-0.1528,-0.1508,-0.1501,-0.1494,-0.1459,-0.1449,-0.1569,-0.1569,-0.1569,0,-0.161,-0.1586,-0.1635,-0.1623,-0.1667,-0.1723,-0.1701,-0.1705,-0.1713,-0.1705,-0.171,-0.166,-0.1633,-0.1572,-0.1554,-0.156,-0.1556,-0.1541,-0.1502,-0.1495,-0.1489,-0.1455,-0.1444,-0.1567,-0.1567,-0.1568,-0.1568,0,-0.1596,-0.1598,-0.1625,-0.1565,-0.1599,-0.1627,-0.1626,-0.163,-0.165,-0.163,-0.1586,-0.1568,-0.1531,-0.1516,-0.1516,-0.1459,-0.1473,-0.1502,-0.1507,-0.1478,-0.1445,-0.1434,-0.1565,-0.1565,-0.1566,-0.1566,0,0,-0.1486,-0.1572,-0.1566,-0.1554,-0.1586,-0.159,-0.1576,-0.1543,-0.1541,-0.1512,-0.1468,-0.1411,-0.1437,-0.1414,-0.1424,-0.1398,-0.1343,-0.143,-0.143,-0.1386,-0.1295,-0.1185,-0.1164,-0.1382,-0.138,-0.1379,-0.1288,0,-0.1413,-0.1395,-0.1456,-0.1423,-0.1421,-0.1486,-0.1449,-0.1451,-0.145,-0.1417,-0.1413,-0.1371,-0.1386,-0.1389,-0.1362,-0.1355,-0.1316,-0.1364,-0.1337,-0.1334,-0.1233,-0.1147,-0.1114,-0.1021,-0.1278,-0.1277,-0.1276,0,-0.1334,-0.1343,-0.1309,-0.1358,-0.1362,-0.1337,-0.1353,-0.1332,-0.1327,-0.1335,-0.1324,-0.133,-0.1281,-0.1314,-0.1251,-0.1292,-0.1277,-0.1267,-0.1265,-0.116,-0.1204,-0.1093,-0.0993,-0.1259,-0.126,-0.1261,-0.1262,0,-0.1228,-0.1239,-0.1218,-0.1227,-0.1268,-0.1267,-0.1282,-0.1296,-0.1294,-0.1288,-0.1288,-0.1257,-0.1238,-0.1218,-0.1183,-0.1231,-0.111,-0.1183,-0.106,-0.1053,-0.1011,-0.1001,-0.112,-0.112,-0.112,-0.112,-0.1121,0,-0.1132,-0.1115,-0.1169,-0.1155,-0.1136,-0.1194,-0.1176,-0.1203,-0.1225,-0.1206,-0.1237,-0.1212,-0.1217,-0.1162,-0.1149,-0.1036,-0.1079,-0.1005,-0.1004,-0.0996,-0.0987,-0.1194,-0.1203,-0.1117,-0.1118,-0.1119,-0.1119,0,-0.1029,-0.1062,-0.1046,-0.1081,-0.109,-0.1077,-0.1131,-0.1122,-0.1158,-0.1141,-0.114,-0.1157,-0.1074,-0.1039,-0.0986,-0.0967,-0.0893,-0.0848,-0.0817,-0.0811,-0.0868,-0.0877,-0.0712,-0.0706,-0.0702,-0.0699,-0.0696,0,-0.0975,-0.0952,-0.0982,-0.0978,-0.0993,-0.0999,-0.1007,-0.1072,-0.1075,-0.1095,-0.1073,-0.1011,-0.0952,-0.0808,-0.0741,-0.0643,-0.0726,-0.0574,-0.0639,-0.08,-0.0817,-0.0833,-0.0848,-0.0585,-0.0581,-0.0578,-0.0576,0,-0.0869,-0.0883,-0.0883,-0.0879,-0.0881,-0.0894,-0.0913,-0.0911,-0.0972,-0.0967,-0.0935,-0.0894,-0.0758,-0.0646,-0.0513,-0.0463,-0.0586,-0.0506,-0.0671,-0.0679,-0.0668,-0.069,-0.0711,-0.0549,-0.0552,-0.0554,-0.0555,-0.0556,-0.0791,-0.0775,-0.0779,-0.0772,-0.0778,-0.0773,-0.0756,-0.0781,-0.0777,-0.0747,-0.0776,-0.0683,-0.069,-0.0434,-0.0355,-0.0263,-0.0338,-0.0366,-0.0381,-0.0398,-0.0384,-0.0365,-0.0186,-0.0187,-0.0187,-0.0188,-0.0188,0,-0.0687,-0.0689,-0.0674,-0.067,-0.0646,-0.0683,-0.0679,-0.0651,-0.061,-0.0573,-0.0534,-0.0452,-0.0369,-0.0314,-0.0157,-0.0129,-0.0174,-0.0098,-0.0218,-0.0243,-0.0266,-0.0252,-0.0015,-0.0015,-0.0014,-0.0013,0,0,-0.0636,-0.0599,-0.0599,-0.0536,-0.0533,-0.0481,-0.0461,-0.043,-0.0386,-0.031,-0.0253,-0.0284,-0.0304,-0.0183,-0.0155,-0.0058,-0.0132,-0.0011,-0.0153,-0.0318,-0.034,-0.0423,-0.0428,0,0,0,0,0]},{"header":{"parameterUnit":"m.s-1","parameterCategory":2,"la1":30.2991,"la2":30.254,"lo1":-89.0895,"lo2":-89.0444,"dy":0.0017,"dx":0.0017,"nx":28,"ny":28,"refTime":"2024-03-21T21:00:00:Z","depth":"2","parameterNumber":3,"parameterNumberName":"V-component_of_CURRENTS"},"data":[0,0,0,0,0,0,0,0,0,0,0,0,0,0,0,0,0,0,0,0,0,0,0,0,0,0,0,0,0,0,0,0,0,0,0,0,0,0,0,0,0,0,0,0,0,0,0,0,0,0,0,0,0,0,0,0,0,0,-0.0301,-0.0297,0,-0.0024,-0.0022,-0.002,0.0065,0.0065,0.0064,0.0064,0.0145,0.0147,0.015,0,0,0,0,0,0,0,0,0,0,0,0,0,-0.0354,-0.0357,-0.0301,-0.0297,-0.0292,-0.0025,-0.0022,-0.0019,0.0065,0.0065,0.0064,0.0064,0.0144,0.0147,0.015,0,0,0,0,0,0,0,0,0,0,0,0,0,-0.024,-0.0358,-0.0302,-0.021,-0.0199,-0.0025,-0.0022,-0.0018,0.0065,0.0065,0.0064,0.0064,0.0143,0.0147,0.0151,0.0186,0,0,0.0162,0.0164,0,0,0,0,0,0,0,0,-0.0248,-0.024,-0.0228,-0.0216,-0.0203,-0.0006,-0.001,0.0044,0.0066,-0.0046,0.0064,0.0063,0.0084,0.0092,0.0134,0.019,0.0194,0.0163,0.0165,0.0167,0.0168,0,0,0,0,0,0,0,-0.0256,-0.0249,-0.0202,-0.0223,-0.0207,-0.0044,-0.0034,0.0003,0.0007,-0.0036,-0.0027,0.0021,0.0088,0.013,0.0136,0.0195,0.0162,0.0166,0.0168,0.017,0.0334,0.0336,0,0,0,0,0,0,-0.0291,-0.0259,-0.0211,-0.0193,-0.0215,-0.0044,-0.0032,-0.0077,0.0012,0.0029,0.0021,0.0024,0.0124,0.0131,0.0139,0.0168,0.0167,0.017,0.0172,0.0332,0.0335,0.0337,0,0,0,0,0,0,-0.0295,-0.0293,-0.0222,-0.0204,-0.0183,-0.0044,-0.0093,-0.0071,-0.0029,0.0059,0.007,0.0041,0.0124,0.0133,0.0188,0.0172,0.0172,0.0175,0.033,0.0333,0.0336,0.0237,0,0,0,0,0,0,-0.0299,-0.0299,-0.0294,-0.0211,-0.0185,-0.0167,-0.009,-0.0064,0.0007,0.0013,0.008,0.0088,0.0124,0.0182,0.0191,0.0177,0.0178,0.0327,0.0331,0.0335,0.0237,0.0236,0.0235,0,0,0,0,0,-0.0304,-0.0307,-0.0299,-0.0287,-0.0205,-0.0167,-0.0143,-0.0045,0.0008,-0.0005,0.0085,0.0085,0.0214,0.0187,0.0197,0.0183,0.0325,0.033,0.0334,0.0238,0.0236,0.0235,0,0,0,0,0,0,-0.0326,-0.0295,-0.0285,-0.0282,-0.0249,-0.0151,-0.0093,-0.0049,0.0019,0.0048,0.0109,0.0122,0.017,0.0205,0.0174,0.0253,0.0271,0.0278,0.0194,0.0193,0.0192,0.0132,0.0181,0,0,0,0,0,-0.0333,-0.0341,-0.0301,-0.0302,-0.0281,-0.0193,-0.0139,-0.01,-0.0031,0.0001,0.0055,0.0135,0.0202,0.0217,0.028,0.0308,0.0321,0.0315,0.0313,0.0311,0.0278,0.0307,0.0302,0.0352,0.0352,0.0352,0,0,-0.0337,-0.0316,-0.0317,-0.0303,-0.0251,-0.0227,-0.0168,-0.0115,-0.0094,-0.0003,0.0057,0.0131,0.0217,0.0264,0.0285,0.0281,0.031,0.0318,0.0314,0.0281,0.031,0.0305,0.0299,0.0355,0.0355,0.0354,0,0,-0.0345,-0.0348,-0.0348,-0.0328,-0.0263,-0.0225,-0.0225,-0.015,-0.0121,-0.006,0.0032,0.0086,0.0185,0.0229,0.0271,0.03,0.0314,0.0338,0.0258,0.0287,0.0281,0.0275,0.0286,0.0283,0.0321,0.0321,0.032,0,-0.0358,-0.0357,-0.0338,-0.0325,-0.0284,-0.0242,-0.0229,-0.0197,-0.0113,-0.0088,-0.006,0.0108,0.0162,0.0219,0.0233,0.0285,0.0309,0.0244,0.0277,0.0272,0.0268,0.0281,0.0278,0.0316,0.0317,0.0317,0.0318,0,-0.0354,-0.0345,-0.034,-0.0331,-0.0305,-0.0288,-0.0254,-0.0232,-0.0178,-0.0137,-0.0074,0.0012,0.01,0.0132,0.0187,0.0202,0.0231,0.0276,0.0257,0.0255,0.0272,0.027,0.031,0.0312,0.0313,0.0314,0,0,-0.0437,-0.0361,-0.036,-0.0343,-0.0302,-0.0295,-0.0272,-0.025,-0.0224,-0.0176,-0.014,-0.0053,-0.0014,0.0037,0.0107,0.011,0.0105,0.0168,0.0171,0.0135,0.0159,0.0191,0.0193,0.0159,0.0159,0.0158,0.0179,0,-0.045,-0.0421,-0.0378,-0.036,-0.0342,-0.0304,-0.0293,-0.0266,-0.0227,-0.019,-0.0144,-0.0079,-0.0048,0.0002,0.0006,0.0113,0.0098,0.0094,0.0203,0.0205,0.0198,0.0191,0.0159,0.0176,0.0178,0.0178,0.0178,0,-0.0458,-0.0433,-0.041,-0.0366,-0.0359,-0.035,-0.0318,-0.0301,-0.0259,-0.0225,-0.0187,-0.0129,-0.0098,-0.0068,0.0005,0.001,0.0055,0.0102,0.0106,0.0158,0.0234,0.0185,0.0174,0.0176,0.0176,0.0176,0.0176,0,-0.0501,-0.046,-0.044,-0.0424,-0.0376,-0.0366,-0.035,-0.0312,-0.0298,-0.025,-0.0226,-0.0175,-0.0137,-0.008,0.001,0.0019,0.0085,0.0125,0.0174,0.0177,0.0178,0.0182,0.0129,0.0129,0.0129,0.0129,0.0129,0,-0.0522,-0.0507,-0.046,-0.0448,-0.0443,-0.04,-0.0393,-0.0364,-0.0324,-0.0318,-0.0256,-0.0236,-0.0141,-0.0081,-0.0006,0.008,0.0074,0.0138,0.018,0.0149,0.015,0.0179,0.0184,0.013,0.013,0.013,0.013,0,-0.0551,-0.0518,-0.0498,-0.046,-0.0457,-0.0454,-0.0429,-0.042,-0.0381,-0.0365,-0.0354,-0.028,-0.0185,-0.0091,0.0019,0.0061,0.015,0.0172,0.0119,0.0154,0.022,0.0221,0.0226,0.0227,0.0228,0.0229,0.023,0,-0.0551,-0.054,-0.0518,-0.0523,-0.0505,-0.0499,-0.0496,-0.0455,-0.0441,-0.0398,-0.039,-0.0304,-0.0232,-0.006,0.0058,0.0186,0.0184,0.0193,0.0195,0.0186,0.0227,0.0227,0.0226,0.016,0.016,0.016,0.016,0,-0.0553,-0.0548,-0.0535,-0.0549,-0.0553,-0.0556,-0.0546,-0.0541,-0.0499,-0.0466,-0.0412,-0.0351,-0.0195,-0.0052,0.0104,0.0169,0.0181,0.02,0.0209,0.0148,0.0128,0.0167,0.0168,0.016,0.016,0.016,0.016,0.016,-0.0556,-0.0559,-0.0555,-0.0569,-0.0581,-0.0596,-0.0592,-0.0562,-0.0528,-0.0446,-0.0421,-0.0301,-0.0227,0.0041,0.0141,0.024,0.023,0.0223,0.022,0.0218,0.0215,0.0199,0.0242,0.0242,0.0243,0.0243,0.0243,0,-0.0556,-0.0561,-0.0576,-0.0596,-0.0619,-0.062,-0.0609,-0.0582,-0.0522,-0.0411,-0.0325,-0.0226,-0.0083,0.0041,0.0191,0.0252,0.0241,0.0263,0.0219,0.0216,0.0214,0.021,0.0237,0.0237,0.0238,0.0239,0,0,-0.0556,-0.0566,-0.0577,-0.0619,-0.0638,-0.065,-0.0639,-0.0573,-0.0475,-0.0334,-0.0221,-0.0133,-0.0049,0.005,0.0117,0.0201,0.0208,0.0213,0.0202,0.0139,0.0138,0.0163,0.015,0,0,0,0,0]}],[{"header":{"parameterUnit":"m.s-1","parameterCategory":2,"la1":30.2991,"la2":30.254,"lo1":-89.0895,"lo2":-89.0444,"dy":0.0017,"dx":0.0017,"nx":28,"ny":28,"refTime":"2024-03-21T21:00:00:Z","depth":"4","parameterNumber":2,"parameterNumberName":"U-component_of_CURRENTS"},"data":[0,0,0,0,0,0,0,0,0,0,0,0,0,0,0,0,0,0,0,0,0,0,0,0,0,0,0,0,0,0,0,0,0,0,0,0,0,0,0,0,0,0,0,0,0,0,0,0,0,0,0,0,0,0,0,0,0,0,-0.0545,-0.0545,0,-0.0544,-0.0545,-0.0545,-0.0563,-0.0563,-0.0563,-0.0564,-0.06,-0.06,-0.0601,0,0,0,0,0,0,0,0,0,0,0,0,0,-0.0528,-0.0529,-0.0545,-0.0545,-0.0545,-0.0544,-0.0545,-0.0545,-0.0563,-0.0563,-0.0564,-0.0564,-0.0599,-0.06,-0.0601,0,0,0,0,0,0,0,0,0,0,0,0,0,-0.0535,-0.0529,-0.0545,-0.0552,-0.0552,-0.0544,-0.0545,-0.0545,-0.0563,-0.0563,-0.0564,-0.0564,-0.0599,-0.06,-0.0601,-0.0601,0,0,-0.0605,-0.0605,0,0,0,0,0,0,0,0,-0.0535,-0.0536,-0.0551,-0.0551,-0.0551,-0.0552,-0.0552,-0.0564,-0.0563,-0.0562,-0.0564,-0.0564,-0.0585,-0.0587,-0.059,-0.0603,-0.0604,-0.0605,-0.0605,-0.0606,-0.0606,0,0,0,0,0,0,0,-0.0534,-0.0536,-0.0548,-0.0551,-0.0551,-0.0543,-0.0545,-0.0554,-0.0574,-0.0562,-0.0562,-0.0558,-0.0586,-0.0589,-0.0591,-0.0605,-0.0605,-0.0606,-0.0606,-0.0607,-0.0683,-0.0684,0,0,0,0,0,0,-0.053,-0.0536,-0.0548,-0.0547,-0.0541,-0.0543,-0.0545,-0.0554,-0.0573,-0.0575,-0.0557,-0.0559,-0.0587,-0.0589,-0.0592,-0.0646,-0.0606,-0.0607,-0.0608,-0.0682,-0.0683,-0.0685,0,0,0,0,0,0,-0.053,-0.0532,-0.0548,-0.0538,-0.0539,-0.0542,-0.0552,-0.0553,-0.0569,-0.0569,-0.0573,-0.0573,-0.0587,-0.0591,-0.0624,-0.0645,-0.0607,-0.0608,-0.068,-0.0682,-0.0684,-0.0719,0,0,0,0,0,0,-0.053,-0.0532,-0.056,-0.0539,-0.054,-0.0558,-0.0551,-0.0553,-0.0563,-0.0565,-0.0583,-0.0586,-0.0587,-0.0623,-0.0626,-0.0646,-0.0609,-0.0678,-0.0681,-0.0683,-0.0716,-0.0722,-0.0727,0,0,0,0,0,-0.053,-0.0577,-0.0561,-0.0563,-0.057,-0.0559,-0.056,-0.0563,-0.0564,-0.0578,-0.0596,-0.0586,-0.0641,-0.0625,-0.0628,-0.0649,-0.0677,-0.068,-0.0683,-0.0714,-0.0721,-0.0727,0,0,0,0,0,0,-0.0599,-0.0582,-0.0565,-0.0608,-0.0583,-0.0561,-0.0582,-0.0571,-0.0594,-0.0602,-0.0603,-0.0608,-0.0645,-0.0645,-0.0627,-0.068,-0.0658,-0.0661,-0.068,-0.0687,-0.0692,-0.0693,-0.061,0,0,0,0,0,-0.0618,-0.064,-0.0607,-0.0637,-0.0626,-0.06,-0.0603,-0.0593,-0.0597,-0.0607,-0.0617,-0.0635,-0.0657,-0.0671,-0.0687,-0.0714,-0.0705,-0.0731,-0.0736,-0.0741,-0.0745,-0.0772,-0.078,-0.0695,-0.0695,-0.0695,0,0,-0.0642,-0.0644,-0.0651,-0.0651,-0.0632,-0.0625,-0.0605,-0.0607,-0.0612,-0.0608,-0.0642,-0.0654,-0.0669,-0.0704,-0.072,-0.0708,-0.0755,-0.0745,-0.0749,-0.075,-0.0776,-0.0784,-0.0791,-0.0697,-0.0697,-0.0696,0,0,-0.0676,-0.0705,-0.0708,-0.07,-0.0676,-0.0665,-0.0665,-0.0643,-0.0651,-0.0667,-0.0675,-0.0703,-0.0727,-0.0747,-0.0758,-0.0803,-0.0783,-0.081,-0.0838,-0.0864,-0.0871,-0.0877,-0.0847,-0.085,-0.0812,-0.0812,-0.0812,0,-0.0689,-0.0715,-0.0709,-0.0707,-0.0717,-0.0682,-0.0684,-0.0682,-0.0679,-0.07,-0.0686,-0.0742,-0.0747,-0.08,-0.0813,-0.0815,-0.081,-0.0809,-0.087,-0.0876,-0.0882,-0.085,-0.0853,-0.0814,-0.0814,-0.0814,-0.0814,0,-0.0703,-0.0734,-0.0742,-0.073,-0.0742,-0.0748,-0.073,-0.0747,-0.075,-0.0747,-0.0796,-0.0802,-0.0838,-0.0843,-0.0837,-0.0889,-0.0863,-0.0872,-0.085,-0.0892,-0.0855,-0.0858,-0.0817,-0.0817,-0.0816,-0.0816,0,0,-0.0684,-0.0735,-0.0736,-0.0755,-0.0766,-0.077,-0.0799,-0.0816,-0.0838,-0.0842,-0.0879,-0.0909,-0.0909,-0.0922,-0.0924,-0.0939,-0.0954,-0.0922,-0.0922,-0.0885,-0.0975,-0.0875,-0.0867,-0.098,-0.0982,-0.0983,-0.0922,0,-0.0679,-0.0709,-0.0743,-0.0781,-0.0796,-0.082,-0.0852,-0.0873,-0.0886,-0.0912,-0.0926,-0.0952,-0.0939,-0.0951,-0.0972,-0.0956,-0.0968,-0.0967,-0.0947,-0.0945,-0.0846,-0.087,-0.0988,-0.0924,-0.0925,-0.0925,-0.0925,0,-0.0661,-0.0701,-0.0739,-0.0828,-0.0835,-0.086,-0.093,-0.0949,-0.0983,-0.0993,-0.1026,-0.1021,-0.104,-0.1021,-0.1025,-0.1025,-0.1009,-0.0992,-0.099,-0.0889,-0.0851,-0.0882,-0.093,-0.0929,-0.0929,-0.0929,-0.0928,0,-0.0639,-0.0703,-0.0753,-0.0775,-0.0849,-0.0893,-0.0933,-0.0979,-0.0998,-0.1038,-0.1039,-0.1077,-0.1063,-0.1075,-0.1016,-0.1033,-0.0996,-0.1017,-0.0914,-0.0904,-0.0996,-0.099,-0.1042,-0.1042,-0.1042,-0.1043,-0.1043,0,-0.0625,-0.0666,-0.075,-0.0774,-0.0841,-0.0898,-0.0953,-0.0995,-0.1035,-0.104,-0.1072,-0.1062,-0.1079,-0.1047,-0.1027,-0.0946,-0.1006,-0.0913,-0.0893,-0.1007,-0.1004,-0.0995,-0.099,-0.104,-0.1041,-0.1041,-0.1042,0,-0.0583,-0.0632,-0.07,-0.0799,-0.0827,-0.0874,-0.095,-0.0972,-0.1018,-0.102,-0.1026,-0.1042,-0.0997,-0.0979,-0.0962,-0.0925,-0.0882,-0.0849,-0.0922,-0.0907,-0.0771,-0.0769,-0.0739,-0.0736,-0.0732,-0.073,-0.0727,0,-0.0564,-0.0592,-0.0702,-0.0727,-0.0774,-0.0841,-0.0869,-0.0948,-0.0957,-0.0985,-0.0968,-0.0948,-0.0938,-0.0817,-0.0833,-0.0776,-0.0778,-0.0744,-0.0811,-0.0762,-0.0745,-0.0749,-0.0751,-0.0722,-0.0722,-0.0721,-0.072,0,-0.0538,-0.058,-0.063,-0.0681,-0.0724,-0.0768,-0.0816,-0.0816,-0.0873,-0.092,-0.0874,-0.0843,-0.0783,-0.0757,-0.0699,-0.0676,-0.0763,-0.0711,-0.072,-0.0782,-0.0741,-0.0728,-0.0734,-0.0709,-0.071,-0.0711,-0.0712,0,-0.0516,-0.0538,-0.059,-0.0628,-0.0669,-0.0674,-0.0719,-0.0723,-0.0747,-0.0784,-0.0763,-0.0746,-0.0768,-0.0702,-0.0656,-0.0608,-0.0621,-0.0615,-0.0629,-0.0641,-0.0637,-0.0572,-0.0467,0,0,0,0,0,-0.0487,-0.0493,-0.0525,-0.0561,-0.0593,-0.0612,-0.0663,-0.0702,-0.0752,-0.0693,-0.0728,-0.0672,-0.0612,-0.0619,-0.0548,-0.0613,-0.062,-0.0529,-0.062,-0.0647,-0.066,-0.0664,0,0,0,0,0,0,-0.0459,-0.049,-0.0503,-0.0484,-0.0484,-0.0511,-0.0537,-0.0578,-0.0558,-0.0609,-0.0583,-0.062,-0.0575,-0.0626,-0.0528,-0.0526,-0.0566,-0.0532,-0.053,-0.0639,-0.0651,-0.0661,-0.0671,0,0,0,0,0]},{"header":{"parameterUnit":"m.s-1","parameterCategory":2,"la1":30.2991,"la2":30.254,"lo1":-89.0895,"lo2":-89.0444,"dy":0.0017,"dx":0.0017,"nx":28,"ny":28,"refTime":"2024-03-21T21:00:00:Z","depth":"4","parameterNumber":3,"parameterNumberName":"V-component_of_CURRENTS"},"data":[0,0,0,0,0,0,0,0,0,0,0,0,0,0,0,0,0,0,0,0,0,0,0,0,0,0,0,0,0,0,0,0,0,0,0,0,0,0,0,0,0,0,0,0,0,0,0,0,0,0,0,0,0,0,0,0,0,0,-0.0458,-0.0458,0,-0.0459,-0.0459,-0.0459,-0.044,-0.044,-0.044,-0.0439,-0.0443,-0.0443,-0.0443,0,0,0,0,0,0,0,0,0,0,0,0,0,-0.0395,-0.0396,-0.0458,-0.0458,-0.0458,-0.0459,-0.0459,-0.0459,-0.044,-0.044,-0.044,-0.0439,-0.0443,-0.0443,-0.0443,0,0,0,0,0,0,0,0,0,0,0,0,0,-0.0409,-0.0397,-0.0458,-0.0451,-0.0451,-0.0459,-0.0459,-0.0459,-0.044,-0.044,-0.044,-0.0439,-0.0443,-0.0443,-0.0443,-0.0454,0,0,-0.0445,-0.0445,0,0,0,0,0,0,0,0,-0.0409,-0.0411,-0.0452,-0.0452,-0.0451,-0.0451,-0.0438,-0.0458,-0.044,-0.0441,-0.0439,-0.0439,-0.0448,-0.0448,-0.0445,-0.0454,-0.0454,-0.0445,-0.0445,-0.0445,-0.0446,0,0,0,0,0,0,0,-0.0408,-0.0411,-0.0456,-0.0452,-0.0452,-0.0433,-0.0435,-0.0441,-0.0445,-0.0441,-0.0441,-0.0445,-0.0447,-0.0445,-0.0445,-0.0454,-0.0445,-0.0445,-0.0446,-0.0446,-0.0444,-0.0444,0,0,0,0,0,0,-0.0416,-0.0411,-0.0456,-0.0456,-0.0432,-0.0435,-0.0437,-0.045,-0.0445,-0.0444,-0.0446,-0.0444,-0.0444,-0.0445,-0.0445,-0.0425,-0.0445,-0.0446,-0.0446,-0.0444,-0.0444,-0.0444,0,0,0,0,0,0,-0.0415,-0.0421,-0.0456,-0.0435,-0.0438,-0.0437,-0.0451,-0.045,-0.0454,-0.0448,-0.0447,-0.0452,-0.0444,-0.0444,-0.0449,-0.0427,-0.0446,-0.0447,-0.0445,-0.0444,-0.0444,-0.0406,0,0,0,0,0,0,-0.0413,-0.042,-0.0425,-0.0436,-0.044,-0.0463,-0.0452,-0.045,-0.0458,-0.0457,-0.0454,-0.0453,-0.0443,-0.0448,-0.0449,-0.0428,-0.0447,-0.0445,-0.0445,-0.0444,-0.0408,-0.0405,-0.0402,0,0,0,0,0,-0.0411,-0.0414,-0.0426,-0.0431,-0.0449,-0.0464,-0.0464,-0.0459,-0.0459,-0.0461,-0.0456,-0.0453,-0.0444,-0.0449,-0.045,-0.0428,-0.0445,-0.0445,-0.0444,-0.0409,-0.0405,-0.0402,0,0,0,0,0,0,-0.0392,-0.0414,-0.0426,-0.0437,-0.0455,-0.0462,-0.0458,-0.0467,-0.0465,-0.0464,-0.0458,-0.0457,-0.0449,-0.0452,-0.0457,-0.0426,-0.0441,-0.0441,-0.0415,-0.0411,-0.0408,-0.0384,-0.0447,0,0,0,0,0,-0.0393,-0.0402,-0.0426,-0.0438,-0.0444,-0.0457,-0.0461,-0.0468,-0.0472,-0.0471,-0.0469,-0.0462,-0.0446,-0.0442,-0.0437,-0.043,-0.0409,-0.0415,-0.0411,-0.0409,-0.039,-0.0322,-0.031,-0.0441,-0.0441,-0.0441,0,0,-0.0393,-0.0404,-0.0412,-0.0435,-0.0442,-0.0445,-0.0457,-0.0471,-0.0468,-0.0473,-0.0464,-0.0459,-0.0445,-0.0425,-0.0421,-0.0425,-0.0369,-0.0408,-0.0405,-0.0388,-0.0319,-0.0306,-0.0294,-0.0441,-0.0441,-0.0441,0,0,-0.0392,-0.0405,-0.0411,-0.0418,-0.0438,-0.0444,-0.0453,-0.047,-0.0469,-0.0476,-0.046,-0.0436,-0.0444,-0.0401,-0.0385,-0.0366,-0.0359,-0.038,-0.0337,-0.027,-0.0258,-0.0247,-0.0237,-0.0225,-0.0372,-0.0372,-0.0372,0,-0.0399,-0.0401,-0.0415,-0.0416,-0.0414,-0.0443,-0.0444,-0.0447,-0.0464,-0.0449,-0.0472,-0.0423,-0.0418,-0.0348,-0.0339,-0.0353,-0.0341,-0.035,-0.0263,-0.0251,-0.024,-0.0233,-0.022,-0.037,-0.037,-0.037,-0.0371,0,-0.0394,-0.0395,-0.0395,-0.0402,-0.0403,-0.0412,-0.042,-0.042,-0.0431,-0.0426,-0.0388,-0.0372,-0.0333,-0.0328,-0.033,-0.0246,-0.0274,-0.0269,-0.0266,-0.0224,-0.0221,-0.0208,-0.0367,-0.0368,-0.0369,-0.0369,0,0,-0.0425,-0.04,-0.0402,-0.0395,-0.0396,-0.0403,-0.0383,-0.037,-0.0346,-0.0351,-0.0303,-0.0267,-0.0258,-0.0239,-0.0227,-0.017,-0.0099,-0.0191,-0.0188,-0.0172,0.0007,-0.0059,-0.0052,-0.0078,-0.0075,-0.0073,-0.0033,0,-0.0426,-0.0415,-0.0398,-0.0386,-0.0381,-0.0371,-0.0349,-0.0335,-0.0323,-0.0285,-0.0245,-0.021,-0.0225,-0.0206,-0.0145,-0.0109,-0.0059,-0.0112,-0.0045,-0.0043,-0.0096,-0.0036,-0.0063,-0.0024,-0.0021,-0.0019,-0.0018,0,-0.043,-0.0418,-0.0404,-0.0369,-0.0365,-0.0359,-0.0316,-0.0302,-0.0242,-0.0228,-0.0169,-0.015,-0.0069,-0.0093,0.0014,-0.0026,-0.0003,0.0021,0.0023,-0.0033,-0.0083,-0.0068,0.0005,0.0004,0.0002,0.0,-0.0001,0,-0.0446,-0.0422,-0.0408,-0.0399,-0.0366,-0.035,-0.0336,-0.0285,-0.0266,-0.0188,-0.0166,-0.007,-0.0045,0.0034,0.0052,0.0046,0.0149,0.0152,0.0116,0.0109,0.0138,0.0126,0.0247,0.0247,0.0247,0.0247,0.0247,0,-0.0446,-0.0437,-0.0418,-0.0411,-0.0396,-0.0365,-0.0338,-0.0304,-0.0245,-0.0217,-0.0146,-0.0116,-0.0011,0.004,0.0082,0.0119,0.0174,0.0141,0.0136,0.0144,0.0132,0.0144,0.0132,0.0248,0.0248,0.0248,0.0247,0,-0.0457,-0.0444,-0.0433,-0.0407,-0.0406,-0.0398,-0.037,-0.0342,-0.0289,-0.0246,-0.0224,-0.0142,-0.0078,0.0001,0.0108,0.0128,0.0191,0.0186,0.0151,0.0139,0.01,0.0089,0.0188,0.0187,0.0186,0.0185,0.0184,0,-0.0456,-0.0452,-0.0448,-0.0455,-0.0447,-0.0437,-0.0429,-0.0377,-0.0348,-0.0282,-0.0261,-0.0191,-0.0141,-0.0037,0.0043,0.0139,0.0139,0.0167,0.0186,0.012,0.0105,0.0095,0.0086,0.0182,0.0181,0.0181,0.0181,0,-0.0453,-0.0461,-0.0455,-0.0476,-0.048,-0.0475,-0.0459,-0.044,-0.038,-0.0341,-0.0286,-0.022,-0.016,-0.0064,-0.0004,0.0062,0.0164,0.0154,0.0158,0.0177,0.0113,0.0097,0.0089,0.0176,0.0177,0.0177,0.0178,0,-0.0458,-0.0463,-0.0472,-0.0485,-0.0501,-0.0501,-0.0489,-0.0453,-0.0419,-0.0334,-0.0337,-0.0251,-0.0196,-0.011,-0.0056,0.0009,0.0037,0.0067,0.0076,0.0082,0.0035,-0.0063,-0.0036,0,0,0,0,0,-0.0456,-0.0463,-0.0481,-0.0494,-0.0513,-0.0521,-0.0499,-0.0477,-0.043,-0.0394,-0.0354,-0.0298,-0.0202,-0.016,-0.0102,-0.0082,0.004,-0.0015,0.0077,0.0152,0.0157,0.0115,0,0,0,0,0,0,-0.0455,-0.0469,-0.0478,-0.0501,-0.0518,-0.0529,-0.0517,-0.0487,-0.0452,-0.0404,-0.0349,-0.0306,-0.0209,-0.0241,-0.0112,-0.0093,-0.0031,0.0037,0.0037,0.0149,0.0154,0.0158,0.0116,0,0,0,0,0]}]]